This demonstration page uses our WeatherBlox Daily Observations layout. Learn more.

Left ArrowRight Arrow

39.01783, -85.05884

Hourly Observations for January 18, 2020

Temp ( °F °C ) Dew Point ( °F °C ) Humidity (%) Winds ( mph kmh ) Pressure ( in mb ) Visibility ( mi km ) Precip ( " mm )
12:52 am 00:52 Cloudy 34 1.1 18 -7.8 52 52 ESE 8 13 30.29 1026 10 16 0.00 0.00
1:09 am 01:09 Cloudy with Light Freezing Drizzle 34 1.1 21 -6.1 59 59 ESE 7 11 30.30 1026 10 16 0.00 0.00
1:45 am 01:45 Cloudy with Light Rain 33 0.6 22 -5.6 64 64 ESE 9 15 30.27 1025 10 16 0.00 0.00
1:52 am 01:52 Cloudy with Light Freezing Rain 33 0.6 23 -5 66 66 ESE 8 13 30.24 1024 9 14 0.01 0.25
2:52 am 02:52 Cloudy with Light Freezing Rain 32 0 25 -3.9 75 75 ESE 12 19 30.21 1023 9 14 0.03 0.76
3:52 am 03:52 Cloudy with Light Rain 33 0.6 26 -3.3 75 75 SE 13 20 30.16 1021 9 14 0.02 0.51
3:59 am 03:59 Cloudy with Freezing Rain 33 0.6 26 -3.3 75 75 SE 13 20 30.18 1022 6 10 0.01 0.25
4:06 am 04:06 Cloudy with Light Freezing Rain 33 0.6 26 -3.3 75 75 SE 13 20 30.18 1022 8 13 0.02 0.51
4:52 am 04:52 Cloudy with Light Freezing Rain 33 0.6 28 -2.2 82 82 SSE 13 20 30.11 1020 8 13 0.10 2.54
5:45 am 05:45 Cloudy with Light Rain 34 1.1 29 -1.7 82 82 SSE 14 22 30.08 1019 10 16 0.03 0.76
5:52 am 05:52 Cloudy with Light Rain 34 1.1 29 -1.7 82 82 SE 14 22 30.05 1018 9 14 0.04 1.02
6:52 am 06:52 Cloudy with Light Rain 35 1.7 30 -1.1 82 82 SSE 13 20 30.01 1016 10 16 0.00 0.00
7:52 am 07:52 Cloudy with Light Rain 36 2.2 31 -0.6 82 82 SSE 17 28 29.95 1014 6 10 0.03 0.76
8:52 am 08:52 Cloudy with Light Rain 39 3.9 34 1.1 82 82 S 14 22 29.91 1013 4 6 0.06 1.52
9:24 am 09:24 Cloudy with Heavy Rain 41 5 37 2.8 86 86 SSW 14 22 29.92 1013 3 4 0.05 1.27
9:52 am 09:52 Cloudy with Light Rain 43 6.1 40 4.4 89 89 SSW 16 26 29.88 1012 3 4 0.13 3.30
9:57 am 09:57 Cloudy with Light Rain 44 6.7 40 4.4 85 85 SSW 16 26 29.90 1013 3 5 0.01 0.25
10:52 am 10:52 Cloudy with Heavy Rain 46 7.8 43 6.1 89 89 WSW 9 15 29.92 1013 2 2 0.12 3.05
11:09 am 11:09 Cloudy with Rain 46 7.8 43 6.1 89 89 SW 12 19 29.94 1014 2 3 0.09 2.29
11:44 am 11:44 Cloudy with Light Rain 46 7.8 43 6.1 89 89 SSW 14 22 29.90 1012 5 8 0.13 3.30
11:52 am 11:52 Cloudy with Light Rain 46 7.8 43 6.1 89 89 SSW 15 24 29.88 1012 5 8 0.13 3.30
12:52 pm 12:52 Cloudy with Mist and Fog 48 8.9 45 7.2 89 89 SW 18 30 29.84 1010 3 4 0.02 0.51
1:41 pm 13:41 Cloudy 49 9.4 45 7.2 86 86 SW 20 31 29.83 1010 10 16 0.00 0.00
1:52 pm 13:52 Cloudy 50 10 46 7.8 86 86 SW 18 30 29.82 1010 10 16 0.00 0.00
2:52 pm 14:52 Cloudy 51 10.6 46 7.8 83 83 SW 21 33 29.81 1009 10 16 0.00 0.00
3:44 pm 15:44 Cloudy 51 10.6 46 7.8 83 83 SW 14 22 29.82 1010 10 16 0.00 0.00
3:52 pm 15:52 Cloudy 52 11.1 46 7.8 80 80 W 18 30 29.82 1010 10 16 0.00 0.00
4:52 pm 16:52 Cloudy 48 8.9 41 5 77 77 W 18 30 29.86 1011 10 16 0.00 0.00
5:52 pm 17:52 Cloudy 45 7.2 36 2.2 71 71 W 24 39 29.89 1012 10 16 0.00 0.00
6:52 pm 18:52 Cloudy 43 6.1 33 0.6 68 68 WSW 20 31 29.91 1013 10 16 0.00 0.00
7:52 pm 19:52 Cloudy 41 5 31 -0.6 67 67 W 30 48 29.91 1013 10 16 0.00 0.00
8:52 pm 20:52 Cloudy 38 3.3 32 0 79 79 W 26 43 29.91 1013 10 16 0.00 0.00
9:52 pm 21:52 Cloudy with Light Rain/Snow 35 1.7 29 -1.7 78 78 WNW 18 30 29.94 1014 9 14 0.00 0.00
10:52 pm 22:52 Cloudy 32 0 24 -4.4 73 73 W 20 31 29.98 1015 10 16 0.00 0.00
11:52 pm 23:52 Cloudy 30 -1.1 21 -6.1 69 69 W 25 41 30.01 1016 10 16 0.00 0.00

Powered by AerisWeather